| time (UTC) | temp F | wind direction | speed MPH | gust MPH | rain 1hr in | rain 24hr in | rain mn in | humidity % | barometer mb |
| 20260508175503 | 71 | 296 | 0.0 | 2.0 | 0.00 | 0.00 | 0.00 | 22 | |
| 20260508175003 | 71 | 283 | 0.0 | 2.0 | 0.00 | 0.00 | 0.00 | 21 | |
| 20260508174503 | 71 | 241 | 0.0 | 2.0 | 0.00 | 0.00 | 0.00 | 20 | |
| 20260508174003 | 71 | 247 | 0.0 | 2.0 | 0.00 | 0.00 | 0.00 | 19 | |
| 20260508173503 | 72 | 248 | 1.0 | 2.0 | 0.00 | 0.00 | 0.00 | 18 | |
| 20260508173003 | 73 | 241 | 0.0 | 2.0 | 0.00 | 0.00 | 0.00 | 17 | |
| 20260508172503 | 73 | 221 | 0.0 | 4.0 | 0.00 | 0.00 | 0.00 | 16 | |
| 20260508172003 | 74 | 224 | 0.0 | 4.0 | 0.00 | 0.00 | 0.00 | 15 | |
| 20260508171503 | 75 | 265 | 0.0 | 2.0 | 0.00 | 0.00 | 0.00 | 15 | |
| 20260508171003 | 75 | 268 | 0.0 | 2.0 | 0.00 | 0.00 | 0.00 | 15 | |
| 20260508170503 | 75 | 265 | 0.0 | 4.0 | 0.00 | 0.00 | 0.00 | 13 | |
| 20260508170004 | 75 | 269 | 0.0 | 4.0 | 0.00 | 0.00 | 0.00 | 13 | |
| 20260508165503 | 76 | 259 | 0.0 | 2.0 | 0.00 | 0.00 | 0.00 | 14 | |
| 20260508165004 | 75 | 257 | 0.0 | 2.0 | 0.00 | 0.00 | 0.00 | 14 | |
| 20260508164505 | 75 | 309 | 0.0 | 2.0 | 0.00 | 0.00 | 0.00 | 13 | |
| 20260508164005 | 75 | 312 | 1.0 | 2.0 | 0.00 | 0.00 | 0.00 | 14 | |
| 20260508163505 | 75 | 256 | 0.0 | 2.0 | 0.00 | 0.00 | 0.00 | 13 | |
| 20260508163005 | 76 | 244 | 1.0 | 4.0 | 0.00 | 0.00 | 0.00 | 13 | |
| 20260508162505 | 76 | 284 | 0.0 | 4.0 | 0.00 | 0.00 | 0.00 | 12 | |
| 20260508162005 | 78 | 304 | 2.0 | 4.0 | 0.00 | 0.00 | 0.00 | 10 | |
| 20260508161505 | 79 | 304 | 0.0 | 3.0 | 0.00 | 0.00 | 0.00 | 12 | |
| 20260508161005 | 79 | 314 | 0.0 | 2.0 | 0.00 | 0.00 | 0.00 | 13 | |
| 20260508160505 | 78 | 308 | 1.0 | 2.0 | 0.00 | 0.00 | 0.00 | 12 | |
| 20260508160005 | 78 | 262 | 1.0 | 4.0 | 0.00 | 0.00 | 0.00 | 12 | |
| 20260508155505 | 78 | 258 | 0.0 | 4.0 | 0.00 | 0.00 | 0.00 | 14 | |
| 20260508155005 | 77 | 256 | 1.0 | 4.0 | 0.00 | 0.00 | 0.00 | 14 | |
| 20260508154505 | 77 | 253 | 0.0 | 4.0 | 0.00 | 0.00 | 0.00 | 13 | |
| 20260508154005 | 77 | 238 | 0.0 | 4.0 | 0.00 | 0.00 | 0.00 | 15 | |
| 20260508153505 | 77 | 243 | 1.0 | 4.0 | 0.00 | 0.00 | 0.00 | 14 | |
| 20260508153005 | 76 | 272 | 1.0 | 4.0 | 0.00 | 0.00 | 0.00 | 15 | |
| 20260508152505 | 77 | 281 | 2.0 | 4.0 | 0.00 | 0.00 | 0.00 | 13 | |
| 20260508152005 | 77 | 279 | 1.0 | 5.0 | 0.00 | 0.00 | 0.00 | 13 | |
| 20260508151505 | 78 | 300 | 2.0 | 5.0 | 0.00 | 0.00 | 0.00 | 10 | |
| 20260508151005 | 78 | 341 | 0.0 | 2.0 | 0.00 | 0.00 | 0.00 | 14 | |
| 20260508150505 | 78 | 326 | 0.0 | 4.0 | 0.00 | 0.00 | 0.00 | 14 | |
| 20260508150005 | 78 | 335 | 0.0 | 4.0 | 0.00 | 0.00 | 0.00 | 14 | |
| 20260508145505 | 78 | 347 | 0.0 | 3.0 | 0.00 | 0.00 | 0.00 | 15 | |
| 20260508145005 | 78 | 293 | 0.0 | 3.0 | 0.00 | 0.00 | 0.00 | 16 | |
| 20260508144505 | 77 | 282 | 0.0 | 3.0 | 0.00 | 0.00 | 0.00 | 16 | |
| 20260508144005 | 77 | 252 | 1.0 | 4.0 | 0.00 | 0.00 | 0.00 | 17 | |
| 20260508143505 | 76 | 253 | 0.0 | 4.0 | 0.00 | 0.00 | 0.00 | 15 | |
| 20260508143005 | 76 | 326 | 1.0 | 5.0 | 0.00 | 0.00 | 0.00 | 19 | |
| 20260508142505 | 76 | 287 | 0.0 | 5.0 | 0.00 | 0.00 | 0.00 | 20 | |
| 20260508142005 | 75 | 287 | 1.0 | 5.0 | 0.00 | 0.00 | 0.00 | 19 | |
| 20260508141505 | 76 | 254 | 0.0 | 5.0 | 0.00 | 0.00 | 0.00 | 19 | |
| 20260508141005 | 77 | 229 | 1.0 | 4.0 | 0.00 | 0.00 | 0.00 | 18 | |
| 20260508140505 | 78 | 219 | 0.0 | 3.0 | 0.00 | 0.00 | 0.00 | 19 | |
| 20260508140005 | 78 | 201 | 0.0 | 5.0 | 0.00 | 0.00 | 0.00 | 19 | |
| 20260508135505 | 78 | 22 | 1.0 | 5.0 | 0.00 | 0.00 | 0.00 | 20 | |
| 20260508135005 | 78 | 300 | 2.0 | 4.0 | 0.00 | 0.00 | 0.00 | 19 | |
| 20260508134505 | 78 | 335 | 0.0 | 4.0 | 0.00 | 0.00 | 0.00 | 23 | |
| 20260508134005 | 77 | 329 | 1.0 | 4.0 | 0.00 | 0.00 | 0.00 | 21 | |
| 20260508133505 | 77 | 297 | 0.0 | 4.0 | 0.00 | 0.00 | 0.00 | 23 | |
| 20260508133005 | 77 | 280 | 0.0 | 4.0 | 0.00 | 0.00 | 0.00 | 22 | |
| 20260508132505 | 77 | 276 | 0.0 | 3.0 | 0.00 | 0.00 | 0.00 | 24 | |
| 20260508132005 | 77 | 267 | 0.0 | 3.0 | 0.00 | 0.00 | 0.00 | 24 | |
| 20260508131505 | 77 | 327 | 1.0 | 3.0 | 0.00 | 0.00 | 0.00 | 23 | |
| 20260508131005 | 76 | 38 | 0.0 | 2.0 | 0.00 | 0.00 | 0.00 | 26 | |
| 20260508130505 | 76 | 333 | 0.0 | 4.0 | 0.00 | 0.00 | 0.00 | 25 | |
| 20260508130005 | 76 | 262 | 0.0 | 4.0 | 0.00 | 0.00 | 0.00 | 25 | |
| 20260508125505 | 76 | 264 | 0.0 | 4.0 | 0.00 | 0.00 | 0.00 | 27 | |
| 20260508125005 | 75 | 294 | 0.0 | 6.0 | 0.00 | 0.00 | 0.00 | 26 | |
| 20260508124505 | 75 | 283 | 0.0 | 6.0 | 0.00 | 0.00 | 0.00 | 27 | |
| 20260508124005 | 76 | 262 | 1.0 | 4.0 | 0.00 | 0.00 | 0.00 | 28 | |
| 20260508123505 | 75 | 287 | 0.0 | 5.0 | 0.00 | 0.00 | 0.00 | 28 | |
| 20260508123005 | 75 | 314 | 0.0 | 5.0 | 0.00 | 0.00 | 0.00 | 28 | |
| 20260508122505 | 76 | 336 | 1.0 | 4.0 | 0.00 | 0.00 | 0.00 | 27 | |
| 20260508122005 | 76 | 239 | 0.0 | 3.0 | 0.00 | 0.00 | 0.00 | 29 | |
| 20260508121505 | 75 | 247 | 0.0 | 3.0 | 0.00 | 0.00 | 0.00 | 30 | |
| 20260508121005 | 75 | 281 | 1.0 | 3.0 | 0.00 | 0.00 | 0.00 | 30 | |
| 20260508120505 | 74 | 339 | 0.0 | 3.0 | 0.00 | 0.00 | 0.00 | 34 | |
| 20260508120005 | 74 | 349 | 0.0 | 4.0 | 0.00 | 0.00 | 0.00 | 34 | |
| 20260508115505 | 73 | 274 | 0.0 | 6.0 | 0.00 | 0.00 | 0.00 | 34 | |
| 20260508115005 | 73 | 265 | 2.0 | 6.0 | 0.00 | 0.00 | 0.00 | 30 | |
| 20260508114505 | 73 | 283 | 1.0 | 3.0 | 0.00 | 0.00 | 0.00 | 33 | |
| 20260508114005 | 72 | 328 | 0.0 | 4.0 | 0.00 | 0.00 | 0.00 | 34 | |
| 20260508113505 | 71 | 314 | 0.0 | 4.0 | 0.00 | 0.00 | 0.00 | 35 | |
| 20260508113005 | 72 | 292 | 1.0 | 5.0 | 0.00 | 0.00 | 0.00 | 33 | |
| 20260508112505 | 72 | 280 | 0.0 | 5.0 | 0.00 | 0.00 | 0.00 | 35 | |
| 20260508112005 | 72 | 272 | 1.0 | 4.0 | 0.00 | 0.00 | 0.00 | 34 | |
| 20260508111505 | 72 | 287 | 2.0 | 3.0 | 0.00 | 0.00 | 0.00 | 34 | |
| 20260508111005 | 72 | 319 | 0.0 | 2.0 | 0.00 | 0.00 | 0.00 | 36 | |
| 20260508110505 | 71 | 322 | 0.0 | 3.0 | 0.00 | 0.00 | 0.00 | 36 | |
| 20260508110005 | 71 | 291 | 0.0 | 3.0 | 0.00 | 0.00 | 0.00 | 36 | |
| 20260508105505 | 71 | 287 | 2.0 | 3.0 | 0.00 | 0.00 | 0.00 | 36 | |
| 20260508105005 | 71 | 296 | 0.0 | 4.0 | 0.00 | 0.00 | 0.00 | 39 | |
| 20260508104505 | 70 | 275 | 2.0 | 4.0 | 0.00 | 0.00 | 0.00 | 38 | |
| 20260508104005 | 70 | 264 | 1.0 | 3.0 | 0.00 | 0.00 | 0.00 | 39 | |
| 20260508103505 | 70 | 284 | 1.0 | 4.0 | 0.00 | 0.00 | 0.00 | 39 | |
| 20260508103005 | 69 | 289 | 0.0 | 4.0 | 0.00 | 0.00 | 0.00 | 41 | |
| 20260508102505 | 69 | 284 | 0.0 | 5.0 | 0.00 | 0.00 | 0.00 | 42 | |
| 20260508102005 | 68 | 287 | 0.0 | 5.0 | 0.00 | 0.00 | 0.00 | 41 | |
| 20260508101505 | 68 | 254 | 1.0 | 4.0 | 0.00 | 0.00 | 0.00 | 41 | |
| 20260508101005 | 67 | 227 | 0.0 | 4.0 | 0.00 | 0.00 | 0.00 | 44 | |
| 20260508100505 | 67 | 242 | 2.0 | 4.0 | 0.00 | 0.00 | 0.00 | 41 | |
| 20260508100005 | 67 | 283 | 2.0 | 4.0 | 0.00 | 0.00 | 0.00 | 41 | |
| 20260508095505 | 67 | 301 | 1.0 | 4.0 | 0.00 | 0.00 | 0.00 | 42 | |
| 20260508095005 | 67 | 327 | 0.0 | 4.0 | 0.00 | 0.00 | 0.00 | 43 | |
| 20260508094505 | 67 | 321 | 0.0 | 2.0 | 0.00 | 0.00 | 0.00 | 46 | |
| 20260508094005 | 66 | 282 | 0.0 | 3.0 | 0.00 | 0.00 | 0.00 | 45 | |
| 20260508093505 | 66 | 270 | 1.0 | 3.0 | 0.00 | 0.00 | 0.00 | 45 | |
| 20260508093005 | 66 | 261 | 2.0 | 3.0 | 0.00 | 0.00 | 0.00 | 45 | |
| 20260508092505 | 66 | 282 | 0.0 | 3.0 | 0.00 | 0.00 | 0.00 | 45 | |
| 20260508092005 | 66 | 42 | 0.0 | 4.0 | 0.00 | 0.00 | 0.00 | 47 | |
| 20260508091505 | 65 | 257 | 0.0 | 4.0 | 0.00 | 0.00 | 0.00 | 47 | |
| 20260508091005 | 65 | 280 | 2.0 | 4.0 | 0.00 | 0.00 | 0.00 | 47 | |
| 20260508090505 | 65 | 291 | 1.0 | 2.0 | 0.00 | 0.00 | 0.00 | 47 | |
| 20260508090005 | 65 | 267 | 1.0 | 2.0 | 0.00 | 0.00 | 0.00 | 47 | |
| 20260508085505 | 65 | 268 | 0.0 | 4.0 | 0.00 | 0.00 | 0.00 | 49 | |
| 20260508085004 | 64 | 315 | 0.0 | 4.0 | 0.00 | 0.00 | 0.00 | 47 | |
| 20260508084505 | 64 | 27 | 2.0 | 4.0 | 0.00 | 0.00 | 0.00 | 48 | |
| 20260508084005 | 64 | 13 | 0.0 | 2.0 | 0.00 | 0.00 | 0.00 | 51 | |
| 20260508083505 | 64 | 348 | 0.0 | 2.0 | 0.00 | 0.00 | 0.00 | 54 | |
| 20260508083005 | 62 | 360 | 0.0 | 4.0 | 0.00 | 0.00 | 0.00 | 57 | |
| 20260508082505 | 61 | 5 | 0.0 | 5.0 | 0.00 | 0.00 | 0.00 | 59 | |
| 20260508082005 | 60 | 344 | 0.0 | 5.0 | 0.00 | 0.00 | 0.00 | 63 | |
| 20260508081505 | 59 | 356 | 0.0 | 4.0 | 0.00 | 0.00 | 0.00 | 66 | |
| 20260508081005 | 58 | 360 | 0.0 | 4.0 | 0.00 | 0.00 | 0.00 | 66 | |
| 20260508080505 | 57 | 1 | 2.0 | 4.0 | 0.00 | 0.00 | 0.00 | 67 | |
| 20260508080005 | 57 | 345 | 2.0 | 4.0 | 0.00 | 0.00 | 0.00 | 67 | |
| 20260508075505 | 57 | 323 | 0.0 | 2.0 | 0.00 | 0.00 | 0.00 | 68 | |
| 20260508075005 | 56 | 333 | 0.0 | 2.0 | 0.00 | 0.00 | 0.00 | 68 | |
| 20260508074505 | 57 | 255 | 0.0 | 3.0 | 0.00 | 0.00 | 0.00 | 68 | |
| 20260508074005 | 57 | 299 | 0.0 | 3.0 | 0.00 | 0.00 | 0.00 | 69 | |
| 20260508073505 | 57 | 317 | 0.0 | 2.0 | 0.00 | 0.00 | 0.00 | 69 | |
| 20260508073005 | 57 | 262 | 0.0 | 2.0 | 0.00 | 0.00 | 0.00 | 70 | |
| 20260508072505 | 56 | 344 | 0.0 | 2.0 | 0.00 | 0.00 | 0.00 | 72 | |
| 20260508072005 | 56 | 360 | 0.0 | 2.0 | 0.00 | 0.00 | 0.00 | 72 | |
| 20260508071505 | 57 | 242 | 0.0 | 2.0 | 0.00 | 0.00 | 0.00 | 71 | |
| 20260508071005 | 58 | 355 | 0.0 | 1.0 | 0.00 | 0.00 | 0.00 | 74 | |
| 20260508070505 | 56 | 360 | 0.0 | 1.0 | 0.00 | 0.00 | 0.00 | 78 | |
| 20260508070005 | 56 | 222 | 0.0 | 1.0 | 0.00 | 0.00 | 0.00 | 78 | |
| 20260508065504 | 55 | 280 | 0.0 | 2.0 | 0.00 | 0.00 | 0.00 | 79 | |
| 20260508065004 | 54 | 310 | 0.0 | 2.0 | 0.00 | 0.00 | 0.00 | 81 | |
| 20260508064504 | 53 | 300 | 0.0 | 1.0 | 0.00 | 0.00 | 0.00 | 82 | |
| 20260508064005 | 53 | 291 | 0.0 | 1.0 | 0.00 | 0.00 | 0.00 | 83 | |
| 20260508063504 | 52 | 270 | 0.0 | 1.0 | 0.00 | 0.00 | 0.00 | 84 | |
| 20260508063004 | 51 | 277 | 0.0 | 1.0 | 0.00 | 0.00 | 0.00 | 84 | |
| 20260508062504 | 51 | 289 | 0.0 | 2.0 | 0.00 | 0.00 | 0.00 | 84 | |
| 20260508062005 | 51 | 301 | 0.0 | 2.0 | 0.00 | 0.00 | 0.00 | 85 | |
| 20260508061504 | 51 | 60 | 0.0 | 2.0 | 0.00 | 0.00 | 0.00 | 85 | |
| 20260508061005 | 51 | 25 | 0.0 | 2.0 | 0.00 | 0.00 | 0.00 | 85 | |
| 20260508060505 | 50 | 44 | 0.0 | 2.0 | 0.00 | 0.00 | 0.00 | 86 | |
| 20260508060005 | 50 | 129 | 0.0 | 2.0 | 0.00 | 0.00 | 0.00 | 86 | |
| 20260508055504 | 50 | 135 | 0.0 | 2.0 | 0.00 | 0.00 | 0.00 | 86 | |
| 20260508055004 | 49 | 135 | 0.0 | 2.0 | 0.00 | 0.00 | 0.00 | 87 | |
| 20260508054504 | 49 | 147 | 0.0 | 2.0 | 0.00 | 0.00 | 0.00 | 87 | |
| 20260508054004 | 48 | 180 | 0.0 | 2.0 | 0.00 | 0.00 | 0.00 | 87 | |
| 20260508053504 | 48 | 180 | 0.0 | 2.0 | 0.00 | 0.00 | 0.00 | 87 | |
| 20260508053004 | 48 | 180 | 0.0 | 2.0 | 0.00 | 0.00 | 0.00 | 87 | |
| 20260508052504 | 47 | 180 | 0.0 | 2.0 | 0.00 | 0.00 | 0.00 | 87 | |
| 20260508052004 | 47 | 180 | 1.0 | 2.0 | 0.00 | 0.00 | 0.00 | 87 | |
| 20260508051504 | 47 | 180 | 0.0 | 2.0 | 0.00 | 0.00 | 0.00 | 87 | |
| 20260508051004 | 47 | 180 | 0.0 | 2.0 | 0.00 | 0.00 | 0.00 | 87 | |
| 20260508050504 | 46 | 180 | 0.0 | 1.0 | 0.00 | 0.00 | 0.00 | 87 | |
| 20260508050005 | 46 | 180 | 0.0 | 1.0 | 0.00 | 0.00 | 0.00 | 87 | |
| 20260508045504 | 46 | 180 | 0.0 | 1.0 | 0.00 | 0.00 | 0.00 | 87 | |
| 20260508045004 | 46 | 180 | 0.0 | 1.0 | 0.00 | 0.01 | 0.00 | 87 | |
| 20260508044504 | 46 | 180 | 0.0 | 1.0 | 0.00 | 0.01 | 0.00 | 87 | |
| 20260508044004 | 46 | 180 | 0.0 | 2.0 | 0.00 | 0.01 | 0.00 | 87 | |
| 20260508043504 | 46 | 170 | 0.0 | 2.0 | 0.00 | 0.01 | 0.00 | 87 | |
| 20260508043004 | 46 | 147 | 0.0 | 2.0 | 0.00 | 0.01 | 0.00 | 87 | |
| 20260508042505 | 46 | 135 | 0.0 | 1.0 | 0.00 | 0.01 | 0.00 | 87 | |
| 20260508042004 | 46 | 135 | 0.0 | 1.0 | 0.00 | 0.01 | 0.00 | 87 | |
| 20260508041505 | 46 | 162 | 0.0 | 1.0 | 0.00 | 0.01 | 0.00 | 87 | |
| 20260508041004 | 46 | 180 | 0.0 | 1.0 | 0.00 | 0.01 | 0.00 | 87 | |
| 20260508040504 | 46 | 180 | 0.0 | 1.0 | 0.00 | 0.01 | 0.00 | 87 | |
| 20260508040005 | 46 | 180 | 0.0 | 1.0 | 0.00 | 0.01 | 0.00 | 87 | |
| 20260508035504 | 46 | 0 | 0.0 | 0.0 | 0.00 | 0.01 | 0.00 | 87 | |
| 20260508035004 | 46 | 140 | 0.0 | 2.0 | 0.00 | 0.01 | 0.00 | 86 | |
| 20260508034505 | 46 | 136 | 0.0 | 3.0 | 0.00 | 0.01 | 0.00 | 86 | |
| 20260508034005 | 46 | 135 | 0.0 | 3.0 | 0.00 | 0.01 | 0.00 | 86 | |
| 20260508033504 | 46 | 135 | 0.0 | 2.0 | 0.00 | 0.01 | 0.00 | 86 | |
| 20260508033004 | 46 | 135 | 0.0 | 1.0 | 0.00 | 0.01 | 0.00 | 86 | |
| 20260508032504 | 46 | 135 | 0.0 | 1.0 | 0.00 | 0.01 | 0.00 | 86 | |
| 20260508032004 | 46 | 120 | 0.0 | 2.0 | 0.00 | 0.01 | 0.00 | 85 | |
| 20260508031504 | 46 | 124 | 0.0 | 2.0 | 0.00 | 0.01 | 0.00 | 85 | |
| 20260508031004 | 46 | 144 | 0.0 | 2.0 | 0.00 | 0.01 | 0.00 | 85 | |
| 20260508030504 | 46 | 135 | 0.0 | 1.0 | 0.00 | 0.01 | 0.00 | 85 | |
| 20260508030005 | 46 | 135 | 0.0 | 1.0 | 0.00 | 0.01 | 0.00 | 85 | |
| 20260508025504 | 46 | 135 | 0.0 | 1.0 | 0.00 | 0.01 | 0.00 | 85 | |
| 20260508025004 | 46 | 135 | 0.0 | 1.0 | 0.00 | 0.01 | 0.00 | 84 | |
| 20260508024504 | 46 | 135 | 0.0 | 1.0 | 0.00 | 0.01 | 0.00 | 84 | |
| 20260508024004 | 46 | 135 | 0.0 | 2.0 | 0.00 | 0.01 | 0.00 | 84 | |
| 20260508023504 | 47 | 135 | 0.0 | 2.0 | 0.00 | 0.01 | 0.00 | 84 | |
| 20260508023004 | 47 | 135 | 0.0 | 2.0 | 0.00 | 0.01 | 0.00 | 84 | |
| 20260508022504 | 47 | 135 | 0.0 | 1.0 | 0.00 | 0.01 | 0.00 | 84 | |
| 20260508022004 | 47 | 135 | 0.0 | 1.0 | 0.00 | 0.01 | 0.00 | 84 | |
| 20260508021504 | 47 | 135 | 0.0 | 1.0 | 0.00 | 0.01 | 0.00 | 84 | |
| 20260508021004 | 47 | 135 | 0.0 | 1.0 | 0.00 | 0.01 | 0.00 | 83 | |
| 20260508020504 | 47 | 135 | 0.0 | 2.0 | 0.00 | 0.01 | 0.00 | 83 | |
| 20260508020005 | 47 | 135 | 0.0 | 2.0 | 0.00 | 0.01 | 0.00 | 83 | |
| 20260508015504 | 47 | 135 | 1.0 | 2.0 | 0.00 | 0.01 | 0.00 | 83 | |
| 20260508015004 | 47 | 135 | 0.0 | 1.0 | 0.00 | 0.01 | 0.00 | 83 | |
| 20260508014504 | 47 | 135 | 0.0 | 1.0 | 0.00 | 0.01 | 0.00 | 83 | |
| 20260508014004 | 48 | 135 | 0.0 | 1.0 | 0.00 | 0.01 | 0.00 | 82 | |
| 20260508013504 | 48 | 135 | 0.0 | 2.0 | 0.00 | 0.01 | 0.00 | 82 | |
| 20260508013005 | 48 | 140 | 0.0 | 2.0 | 0.00 | 0.01 | 0.00 | 82 | |
| 20260508012504 | 48 | 141 | 0.0 | 2.0 | 0.00 | 0.01 | 0.00 | 82 | |
| 20260508012004 | 48 | 135 | 1.0 | 2.0 | 0.00 | 0.01 | 0.00 | 82 | |
| 20260508011505 | 48 | 135 | 0.0 | 1.0 | 0.00 | 0.01 | 0.00 | 82 | |
| 20260508011004 | 48 | 135 | 0.0 | 1.0 | 0.00 | 0.01 | 0.00 | 81 | |
| 20260508010504 | 49 | 135 | 0.0 | 1.0 | 0.00 | 0.01 | 0.00 | 81 | |
| 20260508010004 | 49 | 135 | 0.0 | 1.0 | 0.00 | 0.01 | 0.00 | 81 | |
| 20260508005504 | 49 | 0 | 0.0 | 0.0 | 0.00 | 0.01 | 0.00 | 81 | |
| 20260508005005 | 49 | 0 | 0.0 | 0.0 | 0.00 | 0.01 | 0.00 | 80 | |
| 20260508004504 | 49 | 135 | 0.0 | 2.0 | 0.00 | 0.01 | 0.00 | 80 | |
| 20260508004004 | 49 | 135 | 0.0 | 2.0 | 0.00 | 0.01 | 0.00 | 80 | |
| 20260508003504 | 49 | 135 | 0.0 | 2.0 | 0.00 | 0.02 | 0.00 | 80 | |
| 20260508003005 | 49 | 135 | 0.0 | 1.0 | 0.00 | 0.02 | 0.00 | 80 | |
| 20260508002504 | 49 | 135 | 0.0 | 1.0 | 0.00 | 0.02 | 0.00 | 80 | |
| 20260508002004 | 49 | 0 | 0.0 | 0.0 | 0.00 | 0.02 | 0.00 | 79 | |
| 20260508001504 | 49 | 0 | 0.0 | 0.0 | 0.00 | 0.02 | 0.00 | 79 | |
| 20260508001004 | 49 | 0 | 0.0 | 0.0 | 0.00 | 0.02 | 0.00 | 78 | |
| 20260508000504 | 50 | 0 | 0.0 | 0.0 | 0.00 | 0.02 | 0.00 | 78 | |
| 20260508000004 | 50 | 0 | 0.0 | 0.0 | 0.00 | 0.02 | 0.00 | 78 | |
| 20260507235504 | 50 | 0 | 0.0 | 0.0 | 0.00 | 0.02 | 0.00 | 78 | |
| 20260507235004 | 50 | 0 | 0.0 | 0.0 | 0.00 | 0.02 | 0.00 | 77 | |
| 20260507234504 | 50 | 0 | 0.0 | 0.0 | 0.00 | 0.02 | 0.00 | 77 | |
| 20260507234004 | 50 | 0 | 0.0 | 0.0 | 0.00 | 0.02 | 0.00 | 77 | |
| 20260507233504 | 50 | 360 | 0.0 | 1.0 | 0.00 | 0.02 | 0.00 | 76 | |
| 20260507233004 | 51 | 304 | 0.0 | 1.0 | 0.00 | 0.02 | 0.00 | 76 | |
| 20260507232504 | 51 | 270 | 0.0 | 1.0 | 0.00 | 0.02 | 0.00 | 75 | |
| 20260507232004 | 51 | 270 | 0.0 | 2.0 | 0.00 | 0.02 | 0.00 | 75 | |
| 20260507231504 | 51 | 270 | 0.0 | 2.0 | 0.00 | 0.02 | 0.00 | 75 | |
| 20260507231004 | 51 | 270 | 0.0 | 2.0 | 0.00 | 0.02 | 0.00 | 74 | |
| 20260507230504 | 51 | 0 | 0.0 | 0.0 | 0.00 | 0.02 | 0.00 | 74 | |
| 20260507230005 | 51 | 251 | 0.0 | 2.0 | 0.00 | 0.02 | 0.00 | 74 | |
| 20260507225504 | 52 | 260 | 0.0 | 2.0 | 0.00 | 0.02 | 0.00 | 74 | |
| 20260507225004 | 52 | 262 | 0.0 | 2.0 | 0.00 | 0.02 | 0.00 | 73 | |
| 20260507224505 | 52 | 257 | 0.0 | 2.0 | 0.00 | 0.02 | 0.00 | 73 | |
| 20260507224004 | 52 | 258 | 0.0 | 2.0 | 0.00 | 0.02 | 0.00 | 73 | |
| 20260507223504 | 52 | 243 | 0.0 | 2.0 | 0.00 | 0.02 | 0.00 | 73 | |
| 20260507223004 | 52 | 265 | 0.0 | 2.0 | 0.00 | 0.02 | 0.00 | 73 | |
| 20260507222504 | 53 | 287 | 0.0 | 2.0 | 0.00 | 0.02 | 0.00 | 72 | |
| 20260507222004 | 53 | 276 | 0.0 | 2.0 | 0.00 | 0.02 | 0.00 | 72 | |
| 20260507221504 | 53 | 303 | 0.0 | 2.0 | 0.00 | 0.02 | 0.00 | 72 | |
| 20260507221004 | 53 | 360 | 0.0 | 1.0 | 0.00 | 0.02 | 0.00 | 72 | |
| 20260507220504 | 53 | 355 | 0.0 | 1.0 | 0.00 | 0.02 | 0.00 | 72 | |
| 20260507220005 | 53 | 293 | 0.0 | 2.0 | 0.00 | 0.02 | 0.00 | 72 | |
| 20260507215504 | 53 | 287 | 0.0 | 2.0 | 0.00 | 0.02 | 0.02 | 72 | |
| 20260507215004 | 53 | 278 | 0.0 | 2.0 | 0.00 | 0.02 | 0.02 | 72 | |
| 20260507214504 | 53 | 268 | 0.0 | 2.0 | 0.00 | 0.02 | 0.02 | 72 | |
| 20260507214004 | 53 | 254 | 0.0 | 2.0 | 0.00 | 0.02 | 0.02 | 72 | |
| 20260507213504 | 53 | 234 | 0.0 | 2.0 | 0.00 | 0.02 | 0.02 | 72 | |
| 20260507213004 | 53 | 241 | 0.0 | 2.0 | 0.00 | 0.02 | 0.02 | 72 | |
| 20260507212504 | 53 | 234 | 0.0 | 2.0 | 0.00 | 0.02 | 0.02 | 72 | |
| 20260507212004 | 53 | 242 | 0.0 | 1.0 | 0.00 | 0.02 | 0.02 | 72 | |
| 20260507211504 | 53 | 264 | 0.0 | 1.0 | 0.00 | 0.02 | 0.02 | 72 | |
| 20260507211004 | 53 | 270 | 0.0 | 1.0 | 0.00 | 0.02 | 0.02 | 72 | |
| 20260507210504 | 53 | 225 | 0.0 | 1.0 | 0.00 | 0.02 | 0.02 | 71 | |
| 20260507210005 | 53 | 225 | 0.0 | 1.0 | 0.00 | 0.02 | 0.02 | 71 | |
| 20260507205504 | 53 | 225 | 0.0 | 1.0 | 0.00 | 0.02 | 0.02 | 71 | |
| 20260507205004 | 53 | 215 | 0.0 | 2.0 | 0.00 | 0.02 | 0.02 | 71 | |
| 20260507204505 | 53 | 202 | 0.0 | 2.0 | 0.00 | 0.02 | 0.02 | 70 | |
| 20260507204004 | 53 | 299 | 0.0 | 2.0 | 0.00 | 0.02 | 0.02 | 70 | |
| 20260507203504 | 54 | 345 | 0.0 | 2.0 | 0.00 | 0.02 | 0.02 | 70 | |
| 20260507203004 | 54 | 180 | 0.0 | 1.0 | 0.00 | 0.02 | 0.02 | 69 | |
| 20260507202504 | 54 | 270 | 0.0 | 1.0 | 0.00 | 0.02 | 0.02 | 68 | |
| 20260507202005 | 54 | 270 | 0.0 | 2.0 | 0.00 | 0.02 | 0.02 | 68 | |
| 20260507201504 | 54 | 279 | 0.0 | 2.0 | 0.00 | 0.02 | 0.02 | 68 | |
| 20260507201004 | 54 | 301 | 0.0 | 2.0 | 0.00 | 0.02 | 0.02 | 67 | |
| 20260507200504 | 55 | 290 | 0.0 | 1.0 | 0.00 | 0.02 | 0.02 | 65 | |
| 20260507200004 | 55 | 281 | 0.0 | 2.0 | 0.00 | 0.02 | 0.02 | 65 | |
| 20260507195504 | 55 | 298 | 0.0 | 2.0 | 0.00 | 0.02 | 0.02 | 64 | |
| 20260507195004 | 55 | 265 | 0.0 | 2.0 | 0.00 | 0.02 | 0.02 | 63 | |
| 20260507194504 | 55 | 273 | 0.0 | 2.0 | 0.00 | 0.02 | 0.02 | 62 | |
| 20260507194004 | 55 | 283 | 0.0 | 2.0 | 0.00 | 0.02 | 0.02 | 62 | |
| 20260507193504 | 56 | 266 | 0.0 | 2.0 | 0.00 | 0.02 | 0.02 | 61 | |
| 20260507193004 | 56 | 253 | 0.0 | 2.0 | 0.00 | 0.02 | 0.02 | 59 | |
| 20260507192504 | 56 | 263 | 0.0 | 2.0 | 0.00 | 0.02 | 0.02 | 58 | |
| 20260507192004 | 56 | 271 | 0.0 | 2.0 | 0.00 | 0.02 | 0.02 | 57 | |
| 20260507191504 | 57 | 256 | 0.0 | 2.0 | 0.00 | 0.02 | 0.02 | 55 | |
| 20260507191004 | 57 | 231 | 0.0 | 2.0 | 0.00 | 0.02 | 0.02 | 54 | |
| 20260507190504 | 58 | 228 | 0.0 | 2.0 | 0.00 | 0.02 | 0.02 | 51 | |
| 20260507190005 | 58 | 267 | 0.0 | 3.0 | 0.00 | 0.02 | 0.02 | 51 | |
| 20260507185504 | 58 | 258 | 0.0 | 3.0 | 0.00 | 0.02 | 0.02 | 50 | |
| 20260507185004 | 58 | 235 | 0.0 | 2.0 | 0.00 | 0.02 | 0.02 | 49 | |
| 20260507184504 | 59 | 237 | 0.0 | 2.0 | 0.00 | 0.02 | 0.02 | 47 | |
| 20260507184004 | 59 | 239 | 0.0 | 2.0 | 0.00 | 0.02 | 0.02 | 46 | |
| 20260507183504 | 60 | 200 | 0.0 | 1.0 | 0.00 | 0.02 | 0.02 | 45 | |
| 20260507183004 | 60 | 113 | 0.0 | 2.0 | 0.00 | 0.02 | 0.02 | 44 | |
| 20260507182504 | 61 | 261 | 0.0 | 2.0 | 0.00 | 0.02 | 0.02 | 43 | |
| 20260507182004 | 61 | 249 | 0.0 | 2.0 | 0.00 | 0.02 | 0.02 | 42 | |
| 20260507181504 | 62 | 213 | 0.0 | 2.0 | 0.00 | 0.02 | 0.02 | 41 | |
| 20260507181004 | 62 | 225 | 0.0 | 2.0 | 0.00 | 0.02 | 0.02 | 41 | |
| 20260507180504 | 62 | 215 | 0.0 | 2.0 | 0.00 | 0.02 | 0.02 | 42 | |
| 20260507180004 | 62 | 278 | 0.0 | 2.0 | 0.00 | 0.02 | 0.02 | 42 |